Погода в Чердатах

Россия / Томская область     56°57′01″N   86°56′05″E
темп.,
°C
ветер,
м/с
пор.,
м/с
влажн.,
%
обл.,
%
осадки,
мм/ч
давл.,
гПа
погр.,
м
8 декабря, ср
ср801:00−11зсз4894100 1.3 1019448
04:00−14зсз41093100 0.4 1023516
07:00−18з4109268 0.5 1028386
10:00−22зюз389831 0.0 1031185
13:00−20зюз379187 0.0 1033252
16:00−18юз3989100 0.0 1034366
19:00−17юз41088100 0.0 1034439
22:00−18юз4995100 0.1 1035437
9 декабря, чт
чт901:00−17юз3895100 0.4 1036446
04:00−17зюз3895100 0.1 1037423
07:00−18зюз4995100 0.2 1038412
10:00−19юз4119599 0.1 1040396
13:00−18юз51293100 0.1 1040471
16:00−17юз51391100 0.0 1040548
19:00−17юз61490100 0.0 1041537
22:00−17юз61590100 0.0 1041546
10 декабря, пт
пт1001:00−17юз61690100 0.0 1040567
04:00−17юз61691100 0.0 1040559
07:00−16юз61595100 0.3 1039557
10:00−15юз51394100 0.7 1038621
13:00−13юз51292100 1.0 1038628
16:00−12юз41093100 0.2 1038587
19:00−12юз4109496 0.4 1038446
22:00−11ююз4119499 0.2 1038458
11 декабря, сб
сб1101:00−10ююз51294100 0.6 1037552
04:00−9юз51285100 0.5 1036588
07:00−10юз51382100 0.5 1036497
10:00−10ююз51481100 0.0 1035500
13:00−9ююз51578100 0.0 1033532
16:00−8ююз51477100 0.0 1031492
19:00−8ююз51577100 0.0 1029487
22:00−7ююз51677100 0.0 1026496
12 декабря, вс
вс1201:00−7ююз41480100 0.0 1023444
04:00−8ююз41283100 0.0 1021362
07:00−8юз3986100 0.0 1019286
10:00−10ююз3890100 0.0 1017205
13:00−8юз3888100 0.0 1016423
16:00−8зюз3793100 0.1 1015535
19:00−9зюз3795100 0.1 1017327
22:00−11зсз3694100 0.1 1018304